Miscellaneous Local Product
Issued by NWS North Platte, NE

Home | Current Version | Previous Version | Text Only | Print | Product List | Glossary On
Versions: 1 2 3 4 5 6 7 8 9 10 11 12 13 14 15 16 17 18 19 20 21 22 23 24 25 26 27 28 29 30 31 32 33 34 35 36 37 38 39 40 41 42 43 44 45 46 47 48 49 50
000
AXUS43 KLBF 030610
MISLBF


WESTERN AND NORTH CENTRAL NEBRASKA HOURLY WEATHER ROUNDUP
NATIONAL WEATHER SERVICE NORTH PLATTE NE
100 AM CDT THU SEP 03 2015

NOTE: "FAIR" INDICATES FEW OR NO CLOUDS BELOW 12,000 FEET WITH NO
SIGNIFICANT WEATHER AND/OR OBSTRUCTIONS TO VISIBILITY.

NOTE: STATIONS NOT REPORTING VARIABLES SUCH AS SKY/WEATHER OR
PRESSURE ARE PROVIDED BY THE NEBRASKA DEPARTMENT OF
ROADS...RAWS...AND APRS NETWORKS...AND ARE NOT UNDER
NATIONAL WEATHER SERVICE QUALITY CONTROL.

...OBSERVATIONS IN AND NEAR THE EASTERN PANHANDLE OF NEBRASKA...

CITY           SKY/WX    TMP DP  RH WIND       PRES   REMARKS
PINE RIDGE     CLEAR     69  47  45 VRB5      29.85S
CHADRON        CLEAR     72  44  36 W6        29.83S
ALLIANCE       CLEAR     63  50  62 SE7       29.91S
SIDNEY         PTCLDY    67  48  50 S3        29.96S
CRESCENT LAKE    N/A     70  54  56 S5          N/A
BIG SPRINGS      N/A     74  58  57 SE6         N/A
$$

...OBSERVATIONS IN NORTH CENTRAL NEBRASKA...

CITY           SKY/WX    TMP DP  RH WIND       PRES   REMARKS
VALENTINE      CLEAR     75  60  59 SW12      29.83S
THEDFORD       CLEAR     67  62  83 CALM      29.87S
AINSWORTH      CLEAR     72  62  71 S9        29.84F
O`NEILL        CLEAR     72  69  92 SE6       29.84S
ORD            CLEAR     69  66  90 CALM      29.83F
BROKEN BOW     CLEAR     64  61  90 CALM      29.86S
SPRINGVIEW       N/A     75  63  66 CALM        N/A
SARGENT          N/A     67  64  89 CALM        N/A
CHAMBERS         N/A     70  66  88 CALM        N/A
EWING            N/A     70  64  81 CALM        N/A
$$

...OBSERVATIONS IN SOUTHWEST NEBRASKA AND FAR NORTHEAST COLORADO...

CITY           SKY/WX    TMP DP  RH WIND       PRES   REMARKS
WRAY           CLOUDY    65  52  63 W5        29.90F
HOLYOKE        FAIR      66  59  77 W6        29.91S
IMPERIAL       CLEAR     71  56  58 E6        29.87F
OGALLALA       PTCLDY    72  58  60 E5        29.88F
NORTH PLATTE   PTCLDY    68  64  87 E6        29.86S
MCCOOK         MOCLDY    76  58  53 SE6       29.84S
LEXINGTON      PTCLDY    69  64  85 E6        29.85S
PAXTON           N/A     71  61  70 CALM        N/A
BRADY            N/A     69  63  81 CALM        N/A
CALLAWAY         N/A     65  63  93 E3          N/A
$$

...OBSERVATIONS IN CENTRAL LINCOLN COUNTY AREA...

CITY           SKY/WX    TMP DP  RH WIND       PRES   REMARKS
N.P. AIRPORT   PTCLDY    68  64  87 E6        29.86S
N.P. DOWNTOWN    N/A     73  67  82 CALM        N/A
N.P. HILLCREST   N/A     72  66  81 E9          N/A
$$

...SOME OBSERVATIONS FROM AROUND THE REGION...

CITY           SKY/WX    TMP DP  RH WIND       PRES   REMARKS
DENVER         MOCLDY    73  41  31 SW10      30.03F
LARAMIE        PTCLDY    54  41  61 VRB3      30.18S
CHEYENNE       MOCLDY    66  43  43 W10       30.08F
SCOTTSBLUFF    PTCLDY    68  52  56 E5        29.91S
RAPID CITY     CLEAR     62  52  69 N3        29.80S
PIERRE         CLEAR     80  58  46 S9        29.71S
WINNER         FAIR      80  57  45 S14       29.77F
SIOUX FALLS    FAIR      73  70  90 SE8       29.84F
OMAHA          FAIR      78  70  76 S14       29.87S
GRAND ISLAND   FAIR      74  64  71 S10       29.85F
KANSAS CITY    FAIR      75  68  78 S10       29.95F
WICHITA        FAIR      77  65  66 S10       29.93S
HAYS           FAIR      81  57  44 S12G17    29.88R
LIBERAL        FAIR      75  54  46 S10       29.96S
GOODLAND       MOCLDY    77  54  44 S14       29.91S
$$



USA.gov is the U.S. government's official web portal to all federal, state and local government web resources and services.